QPF
0.01 0.01 0.01 0.01 0.01 0.02 0.04 0.06 0.05 0.02 0.01 0.00 0.00 0.00 0.00 0.00 0.00 0.00 0.00 0.00 0.01 0.01 0.01 0.02 0.02 0.01 0.01 0.01 0.01 0.01 0.00 0.00 0.00 0.00 0.00 0.00 0.01 0.00 0.00 0.00 0.01 0.04 0.07
0.00 0.01 0.01 0.02 0.02 0.03 0.05 0.06 0.02 0.02 0.01 0.01 0.00 0.00 0.00 0.00 0.00 0.01 0.01 0.01 0.00 0.00 0.00 0.01 0.01 0.01 0.01 0.01 0.01 0.01 0.01 0.01 0.00 0.00 0.00 0.00 0.01 0.01 0.01 0.01 0.02 0.06 0.05
0.01 0.02 0.01 0.01 0.03 0.03 0.04 0.05 0.01 0.01 0.01 0.01 0.00 0.00 0.00 0.00 0.00 0.01 0.01 0.01 0.01 0.01 0.01 0.01 0.01 0.01 0.01 0.01 0.01 0.01 0.01 0.01 0.01 0.01 0.01 0.02 0.01 0.03 0.03 0.02 0.02 0.02 0.02
0.01 0.02 0.01 0.01 0.03 0.05 0.04 0.03 0.02 0.03 0.02 0.02 0.02 0.01 0.01 0.01 0.01 0.01 0.01 0.01 0.01 0.01 0.01 0.01 0.02 0.01 0.01 0.01 0.01 0.01 0.01 0.02 0.02 0.02 0.03 0.04 0.03 0.06 0.05 0.03 0.02 0.01 0.02
0.01 0.02 0.02 0.01 0.03 0.07 0.05 0.04 0.04 0.04 0.03 0.03 0.03 0.02 0.02 0.02 0.01 0.00 0.00 0.00 0.01 0.01 0.01 0.02 0.02 0.02 0.02 0.02 0.01 0.01 0.02 0.03 0.02 0.02 0.03 0.03 0.04 0.06 0.05 0.03 0.02 0.02 0.02
0.01 0.02 0.02 0.02 0.04 0.09 0.05 0.05 0.05 0.05 0.05 0.05 0.03 0.03 0.03 0.02 0.01 0.00 0.00 0.00 0.01 0.01 0.02 0.02 0.02 0.02 0.02 0.02 0.02 0.01 0.01 0.02 0.01 0.03 0.03 0.03 0.05 0.07 0.05 0.04 0.03 0.03 0.02
0.01 0.02 0.02 0.02 0.05 0.10 0.07 0.05 0.05 0.05 0.04 0.06 0.04 0.04 0.03 0.02 0.01 0.01 0.01 0.02 0.02 0.02 0.02 0.02 0.02 0.03 0.03 0.03 0.03 0.03 0.02 0.02 0.02 0.04 0.03 0.04 0.06 0.09 0.08 0.06 0.05 0.04 0.03
0.01 0.02 0.02 0.03 0.05 0.08 0.08 0.07 0.07 0.06 0.04 0.06 0.05 0.05 0.04 0.04 0.03 0.03 0.03 0.04 0.04 0.04 0.03 0.02 0.03 0.03 0.03 0.02 0.02 0.03 0.02 0.01 0.01 0.02 0.05 0.05 0.05 0.09 0.10 0.08 0.05 0.05 0.04
0.02 0.03 0.04 0.05 0.07 0.06 0.06 0.07 0.11 0.08 0.07 0.07 0.04 0.04 0.05 0.05 0.05 0.05 0.05 0.05 0.04 0.03 0.02 0.02 0.02 0.02 0.01 0.02 0.02 0.03 0.02 0.01 0.01 0.01 0.02 0.03 0.04 0.05 0.06 0.07 0.07 0.07 0.06
0.02 0.03 0.05 0.08 0.08 0.06 0.05 0.05 0.06 0.06 0.07 0.06 0.07 0.05 0.07 0.08 0.07 0.07 0.05 0.05 0.04 0.02 0.02 0.02 0.02 0.02 0.02 0.02 0.03 0.03 0.02 0.02 0.01 0.02 0.02 0.03 0.03 0.05 0.07 0.06 0.06 0.07 0.06
0.04 0.04 0.06 0.07 0.07 0.07 0.07 0.05 0.05 0.05 0.04 0.04 0.08 0.10 0.09 0.14 0.12 0.09 0.06 0.06 0.05 0.04 0.04 0.03 0.04 0.03 0.02 0.02 0.02 0.03 0.02 0.02 0.02 0.03 0.03 0.04 0.04 0.05 0.07 0.06 0.06 0.06 0.06
0.04 0.06 0.05 0.07 0.07 0.07 0.07 0.09 0.08 0.07 0.05 0.04 0.06 0.10 0.08 0.14 0.14 0.12 0.08 0.05 0.04 0.04 0.03 0.03 0.03 0.03 0.02 0.02 0.04 0.04 0.02 0.02 0.03 0.04 0.05 0.06 0.06 0.05 0.06 0.06 0.06 0.07 0.07
0.03 0.04 0.04 0.06 0.07 0.08 0.09 0.11 0.10 0.09 0.09 0.06 0.06 0.06 0.07 0.09 0.11 0.10 0.08 0.06 0.04 0.03 0.04 0.06 0.06 0.04 0.03 0.03 0.04 0.04 0.02 0.02 0.03 0.03 0.03 0.05 0.05 0.04 0.04 0.05 0.06 0.07 0.07
0.03 0.04 0.03 0.04 0.06 0.07 0.09 0.10 0.10 0.09 0.09 0.09 0.10 0.07 0.09 0.10 0.08 0.08 0.07 0.07 0.08 0.08 0.08 0.09 0.08 0.05 0.05 0.04 0.04 0.03 0.03 0.03 0.05 0.03 0.04 0.03 0.03 0.03 0.03 0.04 0.05 0.05 0.07
0.03 0.04 0.04 0.04 0.04 0.07 0.08 0.08 0.09 0.09 0.09 0.09 0.09 0.07 0.07 0.08 0.08 0.07 0.07 0.09 0.09 0.09 0.10 0.09 0.08 0.08 0.07 0.05 0.04 0.03 0.04 0.03 0.02 0.02 0.03 0.03 0.03 0.03 0.02 0.03 0.04 0.04 0.05
0.03 0.03 0.04 0.05 0.04 0.04 0.05 0.06 0.06 0.07 0.06 0.05 0.04 0.04 0.05 0.06 0.06 0.07 0.09 0.11 0.09 0.07 0.08 0.09 0.10 0.09 0.08 0.06 0.06 0.06 0.06 0.04 0.03 0.03 0.04 0.05 0.04 0.03 0.03 0.03 0.03 0.04 0.04
0.05 0.04 0.04 0.04 0.04 0.04 0.03 0.04 0.04 0.05 0.05 0.04 0.04 0.04 0.05 0.06 0.09 0.09 0.09 0.10 0.10 0.11 0.11 0.10 0.11 0.12 0.12 0.10 0.08 0.06 0.05 0.04 0.04 0.04 0.05 0.05 0.04 0.03 0.03 0.03 0.04 0.04 0.05
0.08 0.08 0.05 0.04 0.05 0.05 0.05 0.05 0.04 0.03 0.03 0.03 0.04 0.06 0.05 0.06 0.08 0.08 0.07 0.07 0.08 0.09 0.09 0.09 0.09 0.09 0.10 0.11 0.11 0.07 0.05 0.05 0.05 0.05 0.05 0.05 0.06 0.06 0.05 0.04 0.03 0.03 0.04
0.09 0.11 0.08 0.05 0.05 0.06 0.06 0.05 0.04 0.04 0.04 0.04 0.04 0.04 0.04 0.04 0.04 0.05 0.05 0.05 0.05 0.07 0.07 0.07 0.09 0.09 0.09 0.10 0.09 0.08 0.07 0.07 0.07 0.04 0.04 0.04 0.06 0.07 0.07 0.06 0.06 0.05 0.03
0.07 0.08 0.07 0.06 0.05 0.05 0.05 0.04 0.04 0.05 0.05 0.05 0.04 0.03 0.04 0.04 0.05 0.07 0.05 0.06 0.06 0.07 0.08 0.08 0.08 0.08 0.09 0.09 0.10 0.10 0.08 0.06 0.05 0.05 0.04 0.04 0.04 0.05 0.07 0.08 0.07 0.06 0.04
0.05 0.05 0.05 0.04 0.03 0.04 0.05 0.06 0.06 0.07 0.06 0.05 0.04 0.04 0.04 0.04 0.05 0.06 0.06 0.06 0.07 0.08 0.08 0.08 0.07 0.07 0.07 0.08 0.08 0.07 0.07 0.06 0.06 0.07 0.04 0.02 0.02 0.04 0.07 0.09 0.10 0.09 0.07
0.05 0.05 0.05 0.03 0.03 0.05 0.07 0.09 0.08 0.07 0.06 0.07 0.06 0.06 0.06 0.05 0.05 0.05 0.06 0.06 0.07 0.09 0.09 0.07 0.07 0.06 0.05 0.05 0.06 0.06 0.06 0.05 0.05 0.04 0.04 0.03 0.03 0.04 0.05 0.07 0.08 0.08 0.08
0.05 0.04 0.04 0.05 0.05 0.05 0.06 0.09 0.08 0.07 0.07 0.07 0.07 0.08 0.07 0.07 0.05 0.05 0.05 0.05 0.06 0.07 0.08 0.07 0.06 0.06 0.05 0.05 0.05 0.07 0.07 0.07 0.07 0.06 0.05 0.05 0.04 0.04 0.05 0.05 0.04 0.04 0.05
0.04 0.03 0.03 0.04 0.05 0.05 0.05 0.06 0.08 0.08 0.07 0.08 0.09 0.08 0.08 0.09 0.09 0.06 0.04 0.04 0.04 0.04 0.05 0.05 0.05 0.05 0.05 0.04 0.05 0.06 0.08 0.09 0.09 0.08 0.07 0.05 0.04 0.04 0.05 0.05 0.05 0.04 0.03
0.03 0.04 0.03 0.03 0.04 0.04 0.05 0.04 0.05 0.07 0.09 0.09 0.09 0.10 0.11 0.10 0.09 0.07 0.04 0.03 0.03 0.03 0.04 0.04 0.04 0.04 0.04 0.04 0.04 0.04 0.05 0.07 0.07 0.07 0.07 0.06 0.06 0.05 0.06 0.07 0.07 0.06 0.04
0.04 0.03 0.03 0.03 0.03 0.03 0.03 0.03 0.04 0.04 0.06 0.07 0.08 0.10 0.11 0.10 0.09 0.07 0.06 0.05 0.04 0.04 0.04 0.05 0.05 0.04 0.04 0.04 0.04 0.04 0.04 0.04 0.05 0.05 0.05 0.05 0.06 0.06 0.06 0.06 0.06 0.06 0.06
MSLP
1006.59 1006.97 1007.56 1008.26 1008.99 1009.67 1010.24 1010.68 1011.02 1011.28 1011.51 1011.75 1012.02 1012.33 1012.66 1012.99 1013.29 1013.54 1013.72 1013.85 1013.94 1014.01 1014.07 1014.16 1014.27 1014.42 1014.58 1014.74 1014.89 1015.01 1015.10 1015.16 1015.20 1015.22 1015.26 1015.31 1015.40 1015.51 1015.66 1015.82 1015.99 1016.16 1016.33
1006.56 1007.07 1007.76 1008.52 1009.27 1009.91 1010.42 1010.79 1011.06 1011.26 1011.47 1011.72 1012.03 1012.40 1012.81 1013.21 1013.57 1013.85 1014.05 1014.17 1014.24 1014.27 1014.30 1014.35 1014.44 1014.55 1014.68 1014.81 1014.92 1015.01 1015.06 1015.09 1015.11 1015.13 1015.17 1015.25 1015.36 1015.52 1015.70 1015.89 1016.10 1016.29 1016.48
1006.45 1007.11 1007.90 1008.72 1009.49 1010.12 1010.59 1010.90 1011.12 1011.29 1011.48 1011.74 1012.07 1012.48 1012.93 1013.36 1013.73 1014.03 1014.22 1014.33 1014.38 1014.40 1014.43 1014.48 1014.56 1014.67 1014.79 1014.89 1014.97 1015.01 1015.01 1015.00 1014.98 1014.97 1015.01 1015.09 1015.23 1015.41 1015.63 1015.87 1016.11 1016.35 1016.57
1006.29 1007.07 1007.96 1008.85 1009.64 1010.28 1010.73 1011.03 1011.23 1011.38 1011.57 1011.84 1012.19 1012.60 1013.05 1013.47 1013.83 1014.10 1014.27 1014.37 1014.41 1014.45 1014.49 1014.57 1014.68 1014.80 1014.92 1015.01 1015.05 1015.05 1015.00 1014.93 1014.86 1014.82 1014.82 1014.90 1015.03 1015.23 1015.48 1015.76 1016.05 1016.33 1016.59
1006.11 1006.99 1007.96 1008.91 1009.74 1010.40 1010.87 1011.18 1011.39 1011.56 1011.76 1012.03 1012.38 1012.79 1013.20 1013.59 1013.90 1014.13 1014.26 1014.34 1014.38 1014.44 1014.52 1014.64 1014.79 1014.95 1015.08 1015.17 1015.19 1015.15 1015.05 1014.93 1014.80 1014.71 1014.67 1014.71 1014.84 1015.03 1015.29 1015.60 1015.92 1016.24 1016.55
1005.96 1006.90 1007.93 1008.93 1009.80 1010.49 1011.00 1011.34 1011.58 1011.79 1012.02 1012.30 1012.65 1013.02 1013.40 1013.72 1013.98 1014.15 1014.24 1014.29 1014.34 1014.41 1014.53 1014.70 1014.90 1015.10 1015.26 1015.36 1015.37 1015.30 1015.17 1014.99 1014.81 1014.66 1014.58 1014.58 1014.67 1014.84 1015.09 1015.40 1015.74 1016.09 1016.43
1005.89 1006.86 1007.90 1008.92 1009.82 1010.54 1011.09 1011.48 1011.77 1012.02 1012.28 1012.58 1012.91 1013.26 1013.59 1013.86 1014.05 1014.16 1014.21 1014.24 1014.29 1014.38 1014.53 1014.74 1014.98 1015.22 1015.41 1015.52 1015.53 1015.45 1015.30 1015.09 1014.87 1014.68 1014.55 1014.50 1014.54 1014.67 1014.90 1015.19 1015.52 1015.89 1016.25
1005.92 1006.87 1007.89 1008.90 1009.79 1010.53 1011.11 1011.54 1011.87 1012.17 1012.46 1012.77 1013.11 1013.43 1013.72 1013.94 1014.08 1014.15 1014.17 1014.18 1014.22 1014.33 1014.50 1014.73 1015.00 1015.25 1015.46 1015.59 1015.61 1015.53 1015.37 1015.16 1014.92 1014.70 1014.53 1014.44 1014.43 1014.52 1014.70 1014.95 1015.27 1015.63 1015.99
1006.04 1006.93 1007.90 1008.85 1009.71 1010.44 1011.02 1011.47 1011.83 1012.16 1012.48 1012.81 1013.14 1013.45 1013.71 1013.90 1014.02 1014.06 1014.07 1014.08 1014.12 1014.23 1014.41 1014.65 1014.91 1015.17 1015.38 1015.51 1015.54 1015.47 1015.33 1015.12 1014.89 1014.66 1014.48 1014.35 1014.31 1014.35 1014.48 1014.69 1014.97 1015.30 1015.65
1006.22 1007.03 1007.91 1008.78 1009.57 1010.25 1010.80 1011.25 1011.62 1011.96 1012.30 1012.64 1012.97 1013.28 1013.53 1013.71 1013.82 1013.87 1013.89 1013.91 1013.96 1014.07 1014.24 1014.47 1014.71 1014.95 1015.14 1015.26 1015.30 1015.24 1015.12 1014.93 1014.72 1014.51 1014.33 1014.19 1014.12 1014.12 1014.21 1014.37 1014.61 1014.90 1015.23
1006.41 1007.12 1007.89 1008.65 1009.36 1009.96 1010.47 1010.89 1011.25 1011.59 1011.93 1012.27 1012.60 1012.91 1013.17 1013.37 1013.50 1013.58 1013.62 1013.67 1013.74 1013.86 1014.02 1014.22 1014.43 1014.62 1014.78 1014.87 1014.90 1014.85 1014.74 1014.59 1014.41 1014.23 1014.06 1013.93 1013.85 1013.83 1013.88 1014.00 1014.20 1014.44 1014.73
1006.57 1007.18 1007.84 1008.50 1009.10 1009.62 1010.06 1010.43 1010.77 1011.09 1011.42 1011.76 1012.10 1012.42 1012.70 1012.92 1013.09 1013.21 1013.30 1013.39 1013.49 1013.61 1013.76 1013.93 1014.10 1014.24 1014.34 1014.40 1014.39 1014.34 1014.24 1014.11 1013.96 1013.81 1013.67 1013.55 1013.47 1013.45 1013.48 1013.58 1013.73 1013.94 1014.18
1006.67 1007.21 1007.77 1008.32 1008.82 1009.26 1009.63 1009.96 1010.27 1010.58 1010.90 1011.23 1011.57 1011.90 1012.19 1012.45 1012.66 1012.83 1012.97 1013.11 1013.24 1013.38 1013.52 1013.66 1013.78 1013.87 1013.91 1013.91 1013.87 1013.79 1013.68 1013.56 1013.42 1013.30 1013.18 1013.08 1013.02 1013.00 1013.03 1013.11 1013.23 1013.40 1013.61
1006.71 1007.20 1007.70 1008.16 1008.58 1008.95 1009.27 1009.57 1009.85 1010.15 1010.47 1010.80 1011.14 1011.46 1011.77 1012.05 1012.29 1012.51 1012.70 1012.88 1013.05 1013.20 1013.34 1013.46 1013.54 1013.57 1013.55 1013.49 1013.39 1013.27 1013.14 1013.00 1012.87 1012.75 1012.64 1012.57 1012.52 1012.51 1012.54 1012.61 1012.73 1012.87 1013.03
1006.71 1007.18 1007.63 1008.04 1008.41 1008.73 1009.02 1009.31 1009.60 1009.90 1010.22 1010.55 1010.89 1011.22 1011.52 1011.80 1012.06 1012.30 1012.53 1012.74 1012.94 1013.11 1013.26 1013.35 1013.40 1013.38 1013.31 1013.18 1013.03 1012.85 1012.67 1012.50 1012.35 1012.22 1012.12 1012.05 1012.01 1012.01 1012.05 1012.13 1012.23 1012.36 1012.49
1006.70 1007.17 1007.61 1007.99 1008.33 1008.64 1008.93 1009.23 1009.54 1009.87 1010.21 1010.56 1010.89 1011.21 1011.50 1011.76 1012.01 1012.25 1012.49 1012.71 1012.93 1013.12 1013.26 1013.35 1013.37 1013.32 1013.20 1013.02 1012.80 1012.57 1012.34 1012.12 1011.93 1011.77 1011.65 1011.57 1011.54 1011.55 1011.60 1011.68 1011.78 1011.90 1012.01
1006.70 1007.19 1007.63 1008.00 1008.34 1008.65 1008.97 1009.31 1009.66 1010.04 1010.41 1010.78 1011.12 1011.42 1011.68 1011.91 1012.13 1012.35 1012.57 1012.79 1013.01 1013.20 1013.35 1013.43 1013.44 1013.36 1013.20 1012.98 1012.72 1012.43 1012.14 1011.87 1011.63 1011.44 1011.29 1011.19 1011.15 1011.16 1011.21 1011.29 1011.40 1011.50 1011.59
1006.73 1007.25 1007.69 1008.07 1008.41 1008.75 1009.10 1009.49 1009.91 1010.34 1010.77 1011.16 1011.50 1011.78 1012.01 1012.21 1012.38 1012.55 1012.74 1012.94 1013.15 1013.34 1013.49 1013.57 1013.57 1013.48 1013.31 1013.06 1012.76 1012.43 1012.09 1011.78 1011.49 1011.25 1011.07 1010.94 1010.87 1010.86 1010.90 1010.98 1011.08 1011.18 1011.26
1006.80 1007.35 1007.80 1008.17 1008.52 1008.88 1009.28 1009.72 1010.20 1010.70 1011.17 1011.60 1011.95 1012.22 1012.42 1012.57 1012.69 1012.82 1012.96 1013.14 1013.33 1013.51 1013.65 1013.74 1013.75 1013.66 1013.48 1013.22 1012.90 1012.55 1012.18 1011.83 1011.51 1011.23 1011.00 1010.84 1010.73 1010.69 1010.71 1010.77 1010.85 1010.94 1011.01
1006.92 1007.48 1007.92 1008.29 1008.64 1009.01 1009.44 1009.93 1010.47 1011.02 1011.55 1012.01 1012.38 1012.65 1012.82 1012.94 1013.02 1013.10 1013.21 1013.35 1013.52 1013.69 1013.84 1013.93 1013.95 1013.86 1013.69 1013.44 1013.12 1012.77 1012.40 1012.03 1011.69 1011.38 1011.11 1010.90 1010.75 1010.66 1010.64 1010.66 1010.71 1010.78 1010.83
1007.09 1007.64 1008.07 1008.41 1008.75 1009.12 1009.57 1010.09 1010.67 1011.28 1011.85 1012.34 1012.73 1013.00 1013.17 1013.26 1013.31 1013.37 1013.45 1013.57 1013.73 1013.89 1014.04 1014.14 1014.16 1014.10 1013.95 1013.71 1013.42 1013.08 1012.73 1012.37 1012.02 1011.69 1011.39 1011.14 1010.93 1010.77 1010.68 1010.64 1010.65 1010.68 1010.71
1007.32 1007.84 1008.24 1008.55 1008.87 1009.23 1009.67 1010.21 1010.82 1011.45 1012.06 1012.58 1012.98 1013.26 1013.43 1013.52 1013.56 1013.60 1013.68 1013.79 1013.94 1014.10 1014.26 1014.36 1014.40 1014.35 1014.22 1014.02 1013.77 1013.47 1013.14 1012.81 1012.47 1012.14 1011.82 1011.52 1011.24 1011.01 1010.83 1010.70 1010.64 1010.61 1010.61
1007.60 1008.10 1008.45 1008.73 1009.02 1009.36 1009.79 1010.33 1010.94 1011.59 1012.21 1012.74 1013.16 1013.45 1013.63 1013.72 1013.77 1013.81 1013.89 1014.01 1014.16 1014.32 1014.48 1014.59 1014.64 1014.61 1014.51 1014.35 1014.13 1013.88 1013.61 1013.31 1013.01 1012.68 1012.34 1012.00 1011.65 1011.33 1011.04 1010.81 1010.65 1010.55 1010.49
1007.96 1008.41 1008.73 1008.98 1009.24 1009.55 1009.97 1010.49 1011.10 1011.73 1012.35 1012.88 1013.31 1013.60 1013.78 1013.89 1013.94 1014.00 1014.08 1014.21 1014.36 1014.53 1014.69 1014.80 1014.86 1014.85 1014.77 1014.64 1014.47 1014.27 1014.05 1013.81 1013.54 1013.23 1012.89 1012.50 1012.09 1011.67 1011.28 1010.93 1010.65 1010.45 1010.33
1008.38 1008.80 1009.09 1009.31 1009.55 1009.85 1010.24 1010.74 1011.33 1011.94 1012.53 1013.05 1013.46 1013.75 1013.93 1014.03 1014.10 1014.16 1014.25 1014.38 1014.53 1014.70 1014.85 1014.96 1015.02 1015.02 1014.96 1014.86 1014.73 1014.58 1014.41 1014.22 1014.00 1013.72 1013.37 1012.96 1012.49 1011.99 1011.48 1011.01 1010.61 1010.30 1010.08
1008.86 1009.25 1009.52 1009.74 1009.96 1010.25 1010.62 1011.10 1011.65 1012.23 1012.79 1013.27 1013.65 1013.91 1014.08 1014.17 1014.23 1014.29 1014.38 1014.50 1014.65 1014.81 1014.95 1015.05 1015.10 1015.10 1015.05 1014.96 1014.86 1014.75 1014.63 1014.48 1014.30 1014.05 1013.72 1013.29 1012.78 1012.21 1011.61 1011.02 1010.50 1010.07 1009.76
Thickness
5820 5815 5808 5804 5800 5796 5792 5788 5785 5782 5779 5777 5774 5772 5770 5767 5765 5762 5760 5758 5756 5754 5752 5750 5749 5747 5747 5746 5745 5744 5743 5742 5742 5743 5743 5742 5741 5740 5740 5739 5738 5738 5737
5822 5813 5807 5802 5798 5794 5789 5785 5782 5779 5776 5774 5771 5769 5766 5764 5761 5759 5757 5755 5753 5751 5749 5747 5746 5744 5743 5743 5742 5741 5740 5739 5739 5739 5739 5739 5739 5738 5737 5737 5736 5735 5734
5820 5811 5805 5799 5795 5791 5787 5783 5780 5777 5773 5771 5768 5765 5763 5760 5758 5756 5753 5751 5750 5748 5746 5744 5743 5741 5740 5739 5739 5738 5738 5737 5737 5737 5737 5738 5737 5736 5735 5734 5733 5732 5731
5818 5810 5804 5797 5793 5789 5784 5780 5777 5773 5770 5767 5765 5762 5760 5757 5755 5753 5750 5748 5747 5745 5743 5742 5740 5738 5737 5736 5735 5735 5735 5735 5735 5735 5736 5737 5737 5735 5733 5731 5730 5728 5727
5815 5807 5800 5795 5790 5786 5782 5777 5773 5770 5767 5764 5761 5759 5756 5754 5752 5750 5747 5745 5743 5742 5740 5739 5737 5735 5734 5733 5732 5732 5732 5732 5732 5733 5734 5736 5735 5732 5730 5728 5726 5725 5724
5812 5805 5796 5792 5787 5783 5778 5774 5770 5767 5764 5761 5758 5756 5753 5751 5748 5746 5744 5742 5740 5738 5737 5735 5733 5732 5731 5729 5729 5729 5728 5729 5729 5732 5734 5734 5732 5730 5727 5725 5724 5722 5721
5809 5803 5793 5788 5784 5779 5775 5771 5767 5764 5761 5758 5755 5752 5750 5748 5745 5743 5741 5739 5737 5735 5733 5732 5730 5729 5728 5726 5726 5725 5725 5726 5727 5729 5731 5731 5730 5728 5725 5723 5721 5720 5719
5808 5800 5790 5784 5781 5776 5772 5768 5764 5761 5759 5756 5752 5750 5747 5745 5742 5740 5738 5735 5734 5732 5730 5728 5727 5726 5725 5723 5723 5722 5722 5722 5725 5727 5728 5728 5727 5725 5723 5720 5718 5717 5716
5807 5798 5788 5782 5777 5773 5769 5765 5762 5758 5756 5753 5750 5747 5744 5741 5739 5737 5735 5732 5730 5729 5727 5725 5724 5722 5721 5720 5720 5719 5720 5720 5721 5723 5724 5725 5723 5722 5720 5718 5716 5715 5714
5804 5796 5788 5782 5776 5771 5766 5762 5759 5756 5753 5750 5747 5743 5741 5738 5736 5734 5732 5730 5728 5725 5724 5722 5721 5720 5719 5718 5717 5717 5717 5717 5718 5720 5721 5720 5720 5718 5716 5714 5713 5712 5711
5798 5793 5787 5782 5776 5772 5766 5761 5757 5753 5750 5747 5744 5741 5738 5735 5734 5732 5730 5727 5725 5723 5721 5719 5718 5717 5716 5716 5715 5715 5715 5715 5716 5717 5717 5716 5716 5714 5711 5709 5709 5708 5708
5791 5789 5786 5780 5775 5771 5767 5761 5756 5753 5748 5744 5741 5738 5735 5733 5732 5731 5728 5725 5723 5721 5718 5716 5715 5714 5713 5714 5713 5712 5712 5713 5714 5714 5713 5712 5710 5709 5707 5705 5705 5705 5704
5789 5786 5784 5779 5774 5770 5765 5759 5755 5752 5747 5742 5739 5736 5733 5731 5729 5728 5725 5722 5719 5717 5715 5714 5712 5711 5711 5711 5711 5710 5710 5710 5710 5710 5709 5708 5706 5705 5703 5702 5701 5701 5700
5786 5782 5782 5777 5771 5767 5763 5758 5754 5750 5745 5741 5737 5734 5731 5728 5727 5725 5722 5719 5716 5714 5712 5711 5709 5708 5708 5708 5708 5708 5707 5707 5706 5705 5705 5703 5702 5701 5700 5699 5698 5697 5697
5780 5777 5775 5774 5768 5763 5759 5754 5751 5748 5744 5740 5736 5732 5729 5726 5723 5721 5718 5715 5713 5710 5708 5706 5705 5704 5703 5703 5703 5704 5703 5703 5703 5702 5700 5699 5698 5697 5696 5695 5694 5693 5693
5775 5774 5770 5768 5765 5760 5755 5750 5748 5746 5742 5739 5734 5730 5727 5724 5720 5717 5713 5711 5708 5706 5704 5702 5700 5699 5698 5698 5698 5698 5697 5697 5697 5696 5695 5694 5693 5692 5691 5690 5690 5689 5689
5771 5769 5766 5763 5760 5755 5751 5748 5745 5743 5740 5736 5732 5728 5724 5720 5716 5713 5709 5706 5704 5701 5700 5698 5697 5695 5694 5693 5692 5693 5693 5692 5692 5691 5690 5689 5688 5688 5687 5686 5686 5685 5685
5767 5763 5761 5760 5754 5751 5748 5744 5742 5739 5736 5732 5729 5724 5720 5716 5713 5709 5705 5702 5700 5697 5695 5693 5691 5689 5687 5686 5685 5686 5687 5687 5687 5687 5687 5685 5684 5683 5682 5682 5681 5681 5681
5762 5758 5754 5753 5749 5745 5742 5740 5736 5734 5731 5728 5725 5720 5716 5713 5709 5705 5701 5698 5695 5693 5691 5689 5686 5683 5680 5680 5680 5681 5682 5683 5683 5682 5682 5681 5680 5679 5678 5676 5676 5676 5676
5759 5755 5751 5748 5745 5741 5736 5734 5730 5728 5726 5724 5720 5716 5713 5709 5705 5701 5698 5694 5692 5689 5686 5683 5680 5679 5677 5676 5676 5676 5677 5678 5678 5677 5676 5676 5675 5674 5673 5672 5671 5671 5671
5755 5750 5747 5743 5741 5737 5732 5728 5724 5722 5721 5718 5715 5712 5709 5705 5701 5697 5694 5691 5688 5684 5681 5678 5676 5673 5672 5672 5668 5668 5672 5675 5673 5672 5671 5670 5669 5669 5669 5668 5667 5666 5665
5750 5747 5744 5740 5737 5733 5729 5726 5722 5720 5717 5714 5712 5709 5705 5701 5698 5695 5690 5686 5683 5679 5676 5673 5670 5667 5667 5666 5661 5658 5658 5662 5664 5666 5664 5663 5663 5663 5663 5662 5661 5661 5660
5748 5744 5741 5737 5733 5730 5726 5723 5719 5716 5713 5709 5705 5703 5700 5696 5693 5691 5688 5683 5679 5676 5672 5669 5666 5662 5659 5660 5658 5653 5649 5648 5652 5657 5657 5657 5657 5656 5656 5657 5656 5656 5655
5746 5742 5738 5734 5730 5726 5722 5718 5714 5709 5706 5704 5701 5698 5694 5691 5687 5685 5682 5679 5675 5672 5669 5666 5663 5660 5656 5653 5653 5652 5649 5646 5642 5644 5648 5651 5651 5651 5650 5651 5651 5650 5650
5744 5738 5734 5730 5726 5722 5718 5714 5710 5706 5703 5700 5697 5693 5688 5685 5682 5680 5677 5674 5671 5668 5665 5662 5659 5656 5653 5650 5647 5646 5644 5643 5641 5637 5637 5641 5644 5645 5646 5646 5646 5645 5645
5741 5736 5731 5725 5721 5718 5714 5710 5705 5701 5698 5694 5690 5687 5684 5680 5677 5674 5672 5669 5666 5664 5661 5658 5655 5652 5649 5646 5644 5642 5640 5637 5635 5634 5632 5633 5635 5638 5641 5641 5641 5641 5640